Ord, NE

10:54 PM CDT on September 24, 2016 (GMT -0500)
Sharp

Weather History for KODX - April, 2014

Change the Weather History Date:

Monday, April 7, 2014

  Actual Average Record
Temperature  
Mean Temperature 44 °F 46 °F  
Max Temperature 56 °F 59 °F 75 °F (1999)
Min Temperature 32 °F 33 °F 11 °F (2009)
Degree Days  
Heating Degree Days 21 19  
Month to date heating degree days 170 140  
Since 1 July heating degree days 6003  
Cooling Degree Days 0 0  
Month to date cooling degree days 0 0  
Year to date cooling degree days 0 0  
Moisture  
Dew Point 36 °F    
Average Humidity 74    
Maximum Humidity 93    
Minimum Humidity 54    
Precipitation  
Precipitation 0.04 in 0.07 in 1.12 in (2003)
Month to date precipitation 0.38 0.39  
Year to date precipitation 0.83 2.65  
Sea Level Pressure  
Sea Level Pressure 29.94 in    
Wind  
Wind Speed 15 mph (NW)    
Max Wind Speed 36 mph    
Max Gust Speed 43 mph    
Visibility 10 miles    
Events Rain    
T = Trace of Precipitation, MM = Missing Value Source: NWS Daily Summary

Daily Weather History Graph

Daily Weather History Graph

Search for Another Location

Airport or City:

Trip Planner

Search our weather history database for the weather conditions in past years. The results will help you decide how hot, cold, wet, or windy it might be!

Date:

Astronomy

Apr. 07, 2014 Rise Set
Actual Time 7:08 AM CDT 8:07 PM CDT
Civil Twilight 6:40 AM CDT 8:36 PM CDT
Nautical Twilight 6:06 AM CDT 9:09 PM CDT
Astronomical Twilight 5:31 AM CDT 9:45 PM CDT
Moon 1:04 PM CDT (4/7) 2:48 AM CDT (4/7)
Length of Visible Light 13h 55m
Length of Day
12h 59m
First Quarter, 53% of the Moon is Illuminated
Apr 7
First Quarter
Apr 15
Full
Apr 22
Last Quarter
Apr 29
New
May 6
First Quarter

Hourly Weather History & Observations

Time (CDT) Temp. Windchill Dew Point Humidity Pressure Visibility Wind Dir Wind Speed Gust Speed Precip Events Conditions
12:53 AM 45.0 °F 41.2 °F 41.0 °F 86% 29.88 in 10.0 mi South 6.9 mph - N/A   Mostly Cloudy
1:53 AM 41.0 °F 39.0 °F 39.9 °F 96% 29.85 in 10.0 mi WSW 3.5 mph - N/A   Clear
2:53 AM 41.0 °F 37.1 °F 39.0 °F 93% 29.84 in 10.0 mi NNW 5.8 mph - N/A   Clear
3:53 AM 41.0 °F 38.0 °F 37.9 °F 89% 29.83 in 10.0 mi Variable 4.6 mph - N/A   Clear
4:53 AM 41.0 °F 34.3 °F 37.0 °F 86% 29.83 in 10.0 mi NW 11.5 mph - N/A   Clear
5:53 AM 41.0 °F 34.7 °F 37.0 °F 86% 29.85 in 10.0 mi NNW 10.4 mph - N/A   Clear
6:53 AM 37.0 °F 31.0 °F 34.0 °F 89% 29.86 in 10.0 mi NNW 8.1 mph - N/A   Clear
7:53 AM 37.9 °F 31.5 °F 34.0 °F 86% 29.90 in 10.0 mi NW 9.2 mph - N/A   Clear
8:53 AM 43.0 °F 35.1 °F 36.0 °F 76% 29.92 in 10.0 mi NW 17.3 mph - N/A   Clear
9:53 AM 48.9 °F - 37.0 °F 64% 29.94 in 10.0 mi NNW 19.6 mph 28.8 mph N/A   Clear
10:53 AM 53.1 °F - 37.9 °F 57% 29.95 in 10.0 mi North 23.0 mph 33.4 mph N/A   Clear
11:53 AM 54.0 °F - 37.9 °F 55% 29.95 in 10.0 mi NNW 18.4 mph - N/A   Mostly Cloudy
12:53 PM 50.0 °F - 37.0 °F 61% 29.96 in 10.0 mi NW 24.2 mph - 0.00 in Rain Light Rain
1:53 PM 52.0 °F - 39.0 °F 61% 29.96 in 10.0 mi WNW 16.1 mph - 0.00 in   Overcast
2:53 PM 51.8 °F - 39.2 °F 62% 29.91 in 10.0 mi North - - N/A Rain Light Rain
3:53 PM 52.0 °F - 34.0 °F 50% 29.94 in 10.0 mi North 10.4 mph 23.0 mph 0.00 in   Overcast
4:53 PM 50.0 °F - 37.0 °F 61% 29.95 in 10.0 mi NW 19.6 mph - 0.03 in   Overcast
5:53 PM 48.9 °F - 36.0 °F 61% 29.97 in 10.0 mi NW 25.3 mph 33.4 mph N/A   Scattered Clouds
6:53 PM 48.9 °F - 34.0 °F 56% 29.99 in 10.0 mi NW 28.8 mph 35.7 mph N/A   Partly Cloudy
7:53 PM 48.9 °F - 32.0 °F 52% 30.02 in 10.0 mi NNW 25.3 mph 34.5 mph N/A   Overcast
8:53 PM 43.0 °F 36.4 °F 34.0 °F 71% 30.05 in 10.0 mi NW 12.7 mph - N/A   Clear
9:53 PM 41.0 °F 34.3 °F 34.0 °F 76% 30.07 in 10.0 mi NW 11.5 mph - N/A   Clear
10:53 PM 39.9 °F 32.5 °F 33.1 °F 77% 30.06 in 10.0 mi NW 12.7 mph - N/A   Clear
11:53 PM 37.0 °F 30.4 °F 32.0 °F 82% 30.07 in 10.0 mi WNW 9.2 mph - N/A   Clear